Preview of NWS' New Version of Forecast
This preview is not operational and should not be used for support decisions.

Regional Weather Roundup (RWR)

Issued by Philadelphia/Mt Holly (PHI)

                            
000
ASUS41 KPHI 250312
RWRPHI

REGIONAL WEATHER ROUNDUP
NATIONAL WEATHER SERVICE MOUNT HOLLY NJ
1100 PM EDT FRI MAY 24 2019

NOTE:  "FAIR" INDICATES FEW OR NO CLOUDS BELOW 12,000 FEET WITH NO
SIGNIFICANT WEATHER AND/OR OBSTRUCTIONS TO VISIBILITY.

 * = STATION DOES NOT REPORT PRECIPITATION (E.G. RAIN, SNOW, ETC.) 
        OR FOG.

NJZ015>026-250400-
SOUTHERN NEW JERSEY
  
CITY           SKY/WX    TMP DP  RH WIND       PRES   REMARKS
POMONA         FAIR      67  53  61 NE10      30.08F                  
WILDWOOD*      FAIR      64  55  72 E6        30.09R                  
MILLVILLE      FAIR      69  51  52 NE8       30.08R                  
WRIGHTSTOWN    FAIR      63  51  64 NE8       30.09S                  
MOUNT HOLLY    FAIR      65  50  58 NE7       30.10S                  
TRENTON        FAIR      63  51  65 NE6       30.11F                  

$$
NJZ001>014-250400-
NORTHERN NEW JERSEY
  
CITY           SKY/WX    TMP DP  RH WIND       PRES   REMARKS
SUSSEX         FAIR      55  49  80 W3        30.15S                  
ANDOVER*         N/A     55  50  83 CALM      30.15S                  
MORRISTOWN     FAIR      61  48  63 NW3       30.13S                  
NEWARK         FAIR      64  48  56 N15       30.12S                  
TETERBORO      FAIR      63  48  58 N7        30.11S                  
CALDWELL       FAIR      62  49  62 N3        30.13F                  
SOMERVILLE     FAIR      62  48  60 E3        30.11F                  
ALLAIRE*       FAIR      63  50  62 NW9       30.13S                  
TOMS RIVER*    FAIR      62  53  72 N5        30.12S                  

$$
PAZ043-044-047-054-055-060>062-066>071-250400-
EASTERN PENNSYLVANIA
  
CITY           SKY/WX    TMP DP  RH WIND       PRES   REMARKS
PHILADELPHIA   FAIR      69  50  50 NE12G18   30.10R                  
NORTH PHILA    FAIR      67  50  54 NE15      30.12R                  
BLUE BELL*     FAIR      65  50  58 NE10      30.11S                  
DOYLESTOWN     FAIR      64  49  57 N10G21    30.10S                  
QUAKERTOWN*    CLEAR     64  52  63 NE6G17    30.13                   
PERKASIE*      FAIR      63  50  63 NE12G20   30.13S                  
POTTSTOWN      FAIR      65  50  58 NE6       30.12S                  
LANCASTER      FAIR      67  54  63 N3        30.09R                  
COATESVILLE    FAIR      68  52  56 NE5G12    30.12R                  
WEST CHESTER   FAIR      68  50  52 NE3       30.11R                  
READING        FAIR      69  54  58 VRB3      30.10R                  
ALLENTOWN      FAIR      66  50  56 NE15      30.12R                  
QN CITY/ALNTWN FAIR      64  52  63 NE12G17   30.14R                  
MOUNT POCONO   FAIR      52  47  83 N6        30.16S                  
HAZLETON       FAIR      59  48  67 CALM      30.18R                  
LEHIGHTON      FAIR      63  50  63 E3        30.14R                  
WILKES BARRE   FAIR      59  49  69 E5        30.15S                  

$$
DEZALL-MDZ008-012-015-019-020-250400-
DELAWARE AND EASTERN MARYLAND
  
CITY           SKY/WX    TMP DP  RH WIND       PRES   REMARKS
WILMINGTON     FAIR      70  52  52 NE10      30.10R                  
DOVER          CLEAR     67  55  64 N5        30.07R                  
CHESWOLD         N/A     64  57  77 CALM      30.08R                  
GEORGETOWN     FAIR      67  57  70 CALM      30.08S                  
EASTON         FAIR      67  57  69 CALM      30.12S                  
STEVENSVILLE   FAIR      70  59  68 CALM      30.08S                  
PATUXENT       FAIR      67  63  87 SW5       30.08                   
OCEAN CITY     FAIR      64  57  78 CALM      30.08S                  
WALLOPS ISLAND FAIR      68  57  68 NW3       30.08S                  
CAMBRIDGE      CLEAR     64  59  82 CALM      30.08S                  
SALISBURY      FAIR      64  58  80 E5        30.08S                  

$$
PAZ001-021-NYZ056-072-MDZ011-DCZ001-250400-
OTHER NEARBY LOCATIONS
  
CITY           SKY/WX    TMP DP  RH WIND       PRES   REMARKS
HARRISBURG     FAIR      66  57  72 NW6       30.09R                  
STATE COLLEGE  FAIR      61  50  65 NW5       30.14R                  
WILLIAMSPORT   FAIR      64  53  67 E3        30.12R                  
BINGHAMTON     FAIR      52  45  77 E5        30.15S                  
NEW YORK CITY  FAIR      63  48  58 VRB3      30.15S                  
BALTIMORE      FAIR      69  54  58 VRB3      30.08R                  
WASHINGTON DC  FAIR      75  52  44 N5        30.10R                  

$$